This is the latest recevied weather packets stored in our database for station/object KI5RAB. If no packets are shown the sender has not sent any weather packets the latest 10 day(s).
| Time | Temp. | Humidity | Pressure | Rain* | Wind** | Luminosity | Snow |
|---|---|---|---|---|---|---|---|
| 1777627566 | 16.67° C | 98% | 1013.4 hPa | 28.7 mm | - | 0 W/m² | - |
| 1777627261 | 16.67° C | 98% | 1014.4 hPa | 21.59 mm | - | 0 W/m² | - |
| 1777626958 | 16.67° C | 98% | 1015.6 hPa | 6.6 mm | - | 0 W/m² | - |
| 1777626654 | 16.67° C | 98% | 1015.1 hPa | 4.83 mm | - | 0 W/m² | - |
| 1777626350 | 16.67° C | 98% | 1013.8 hPa | 7.11 mm | - | 0 W/m² | - |
| 1777626049 | 16.67° C | 98% | 1014.1 hPa | 10.16 mm | - | 0 W/m² | - |
| 1777625749 | 16.67° C | 98% | 1013.7 hPa | 8.89 mm | - | 0 W/m² | - |
| 1777625445 | 16.67° C | 98% | 1013.7 hPa | 4.32 mm | - | 0 W/m² | - |
| 1777625140 | 16.67° C | 97% | 1014 hPa | 6.1 mm | - | 0 W/m² | - |
| 1777624837 | 16.67° C | 98% | 1013.7 hPa | 4.83 mm | - | 0 W/m² | - |
| 1777624532 | 16.67° C | 97% | 1013.7 hPa | 4.83 mm | - | 0 W/m² | - |
| 1777624227 | 16.67° C | 97% | 1013.8 hPa | 3.05 mm | - | 0 W/m² | - |
| 1777623921 | 16.67° C | 97% | 1014.1 hPa | 1.27 mm | - | 0 W/m² | - |
| 1777623617 | 16.67° C | 97% | 1013.6 hPa | 3.05 mm | - | 0 W/m² | - |
| 1777623316 | 16.67° C | 97% | 1013.5 hPa | 3.05 mm | - | 0 W/m² | - |
| 1777623012 | 16.67° C | 97% | 1014 hPa | 3.05 mm | - | 0 W/m² | - |
| 1777622709 | 16.67° C | 97% | 1014.1 hPa | 4.83 mm | - | 0 W/m² | - |
| 1777622405 | 17.22° C | 97% | 1014.6 hPa | 8.89 mm | - | 0 W/m² | - |
| 1777622102 | 17.22° C | 97% | 1015.1 hPa | 10.67 mm | - | 0 W/m² | - |
| 1777621797 | 17.22° C | 97% | 1015 hPa | 7.11 mm | - | 0 W/m² | - |
| 1777621489 | 17.22° C | 97% | 1014.9 hPa | 8.89 mm | - | 0 W/m² | - |
| 1777621185 | 17.22° C | 97% | 1015.1 hPa | 9.65 mm | - | 0 W/m² | - |
| 1777620881 | 17.22° C | 97% | 1015.2 hPa | 6.1 mm | - | 0 W/m² | - |
| 1777620577 | 17.22° C | 97% | 1016.2 hPa | 3.05 mm | - | 0 W/m² | - |
| 1777620274 | 17.22° C | 97% | 1016 hPa | 0 mm | - | 0 W/m² | - |
* Rain latest hour (hover to see other rain measurements)
** Current wind speed in m/s (hover to see current wind gust speed)